This demonstration page uses our WeatherBlox Daily Observations layout. Learn more.

Left ArrowRight Arrow

39.92423, -83.80882

Hourly Observations for November 12, 2018

Temp ( °F °C ) Dew Point ( °F °C ) Humidity (%) Winds ( mph kmh ) Pressure ( in mb ) Visibility ( mi km ) Precip ( " mm )
12:56 am 00:56 Cloudy 29 -1.7 27 -2.8 92 92 ESE 5 7 30.31 1026 10 16.0934 N/A
1:56 am 01:56 Mostly Cloudy 28 -2.2 25 -3.9 88 88 N N/A 30.32 1027 10 16.0934 N/A
2:56 am 02:56 Cloudy 29 -1.7 26 -3.3 89 89 E 5 7 30.3 1026 10 16.0934 N/A
3:56 am 03:56 Cloudy 30 -1.1 26 -3.3 85 85 N N/A 30.32 1027 10 16.0934 N/A
4:56 am 04:56 Cloudy 30 -1.1 28 -2.2 92 92 E 5 7 30.31 1026 10 16.0934 N/A
5:56 am 05:56 Cloudy 30 -1.1 27 -2.8 88 88 ENE 5 7 30.3 1026 10 16.0934 N/A
6:56 am 06:56 Mostly Cloudy 29 -1.7 26 -3.3 89 89 ENE 3 6 30.31 1026 10 16.0934 N/A
7:56 am 07:56 Cloudy 30 -1.1 27 -2.8 88 88 E 3 6 30.32 1027 10 16.0934 N/A
8:56 am 08:56 Cloudy 33 0.6 27 -2.8 78 78 E 3 6 30.32 1027 10 16.0934 N/A
9:56 am 09:56 Cloudy 35 1.7 27 -2.8 72 72 E 5 7 30.3 1026 10 16.0934 N/A
10:56 am 10:56 Mostly Cloudy 37 2.8 28 -2.2 70 70 E 7 11 30.29 1026 10 16.0934 N/A
11:56 am 11:56 Cloudy 39 3.9 27 -2.8 62 62 E 7 11 30.27 1025 10 16.0934 N/A
12:56 pm 12:56 Cloudy 39 3.9 26 -3.3 60 60 E 5 7 30.27 1025 10 16.0934 N/A
1:56 pm 13:56 Cloudy 40 4.4 26 -3.3 58 58 ESE 7 11 30.26 1025 10 16.0934 N/A
2:56 pm 14:56 Cloudy 40 4.4 28 -2.2 63 63 SE 7 11 30.24 1024 10 16.0934 N/A
3:56 pm 15:56 Cloudy 40 4.4 25 -3.9 55 55 E 6 9 30.25 1024 10 16.0934 N/A
4:56 pm 16:56 Cloudy 39 3.9 28 -2.2 65 65 ENE 7 11 30.21 1023 10 16.0934 N/A
5:56 pm 17:56 Cloudy 38 3.3 27 -2.8 65 65 NE 6 9 30.21 1023 10 16.0934 N/A
6:56 pm 18:56 Cloudy 38 3.3 26 -3.3 62 62 NE 6 9 30.2 1023 10 16.0934 N/A
7:56 pm 19:56 Cloudy 38 3.3 27 -2.8 65 65 NE 5 7 30.21 1023 10 16.0934 N/A
8:56 pm 20:56 Cloudy 38 3.3 27 -2.8 65 65 NNW 5 7 30.21 1023 10 16.0934 N/A
9:56 pm 21:56 Cloudy with Light Rain 38 3.3 28 -2.2 68 68 N 3 6 30.22 1024 10 16.0934 N/A
10:38 pm 22:38 Cloudy 37 3 30 -1 75 75 N 5 7 30.24 1024 10 16.0934 N/A
10:56 pm 22:56 Cloudy with Light Rain 36 2.2 30 -1.1 79 79 N 9 15 30.22 1023 10 16.0934 N/A
11:05 pm 23:05 Cloudy with Light Rain 36 2 30 -1 81 81 N 8 13 30.24 1024 10 16.0934 N/A
11:56 pm 23:56 Cloudy with Light Snow 34 1.1 31 -0.6 89 89 NNE 7 11 30.22 1023 5 8.0467 N/A

Powered by AerisWeather